Location: Sherrills_Ford_Terrell
(35.6000°N, 80.9830°W)
Time: 07:04:26
(UTC-04:00)

ISS - Visible Passes

Search period start: 25 May 2016 00:00
Search period end: 04 June 2016 00:00
Orbit: 402 x 404 km, 51.6° (Epoch: 25 May)

Date Brightness Start Highest point End Pass type
(mag) Time Alt. Az. Time Alt. Az. Time Alt. Az.
26 May -0.5 04:51:21 10° NNW 04:53:57 22° NNE 04:56:33 10° E visible
26 May -2.4 21:28:38 10° SSW 21:31:27 27° SE 21:34:17 10° ENE visible
26 May -1.0 23:05:06 10° W 23:07:52 25° NNW 23:10:38 10° NNE visible
27 May 0.0 03:59:12 10° N 04:00:59 14° NNE 04:02:45 10° ENE visible
27 May -3.4 05:34:31 10° NW 05:37:46 78° SW 05:41:00 10° SE visible
27 May -2.3 22:11:51 10° WSW 22:15:00 46° NW 22:18:10 10° NE visible
28 May -2.3 04:41:50 10° NW 04:45:00 48° NE 04:48:10 10° ESE visible
28 May -3.4 21:18:59 10° SW 21:22:14 80° SE 21:25:30 10° NE visible
28 May 0.1 22:57:17 10° WNW 22:59:02 14° NNW 23:00:47 10° N visible
29 May -1.0 03:49:22 10° NNW 03:52:09 25° NE 03:54:55 10° E visible
29 May -2.4 05:25:45 10° WNW 05:28:32 27° SW 05:31:19 10° S visible
29 May -0.5 22:03:27 10° W 22:06:03 21° NNW 22:08:38 10° NNE visible
30 May -0.2 02:57:05 10° NNW 02:59:11 16° NNE 03:01:15 10° ENE visible
30 May -3.4 04:32:40 10° NW 04:35:52 60° SW 04:39:04 10° SE visible
30 May -1.6 21:10:04 10° WSW 21:13:08 38° NW 21:16:13 10° NNE visible
31 May 0.3 02:05:29 10° NNE 02:05:55 10° NNE 02:05:55 10° NNE visible
31 May 0.1 21:55:50 10° NW 21:57:12 12° NNW 21:58:36 10° N visible
01 Jun -0.3 21:01:46 10° WNW 21:04:10 19° NNW 21:06:34 10° NNE visible
